This demonstration page uses our WeatherBlox Daily Observations layout. Learn more.

Left ArrowRight Arrow

39.92423, -83.80882

Hourly Observations for March 13, 2019

Temp ( °F °C ) Dew Point ( °F °C ) Humidity (%) Winds ( mph kmh ) Pressure ( in mb ) Visibility ( mi km ) Precip ( " mm )
12:56 am 00:56 Clear 35 1.7 26 -3.3 70 70 SE 8 13 30.22 1024 10 16.0934 0 0
1:56 am 01:56 Clear 35 1.7 26 -3.3 70 70 SE 9 15 30.2 1023 10 16.0934 0 0
2:56 am 02:56 Clear 35 1.7 26 -3.3 70 70 ESE 8 13 30.18 1022 10 16.0934 0 0
3:56 am 03:56 Clear 36 2.2 26 -3.3 67 67 SE 9 15 30.16 1021 10 16.0934 0 0
4:56 am 04:56 Clear 37 2.8 26 -3.3 65 65 SE 9 15 30.14 1021 10 16.0934 0 0
5:56 am 05:56 Cloudy 38 3.3 26 -3.3 62 62 SSE 8 13 30.13 1020 10 16.0934 0 0
6:56 am 06:56 Cloudy 38 3.3 26 -3.3 62 62 SE 6 9 30.14 1021 10 16.0934 0 0
7:56 am 07:56 Cloudy 39 3.9 28 -2.2 65 65 ESE 8 13 30.13 1020 10 16.0934 0 0
8:56 am 08:56 Cloudy 40 4.4 29 -1.7 65 65 SE 8 13 30.14 1021 10 16.0934 0 0.0254
9:56 am 09:56 Cloudy with Light Rain 42 5.6 31 -0.6 65 65 S 10 17 30.15 1021 10 16.0934 0 0.0254
10:56 am 10:56 Cloudy with Light Rain 42 5.6 37 2.8 82 82 S 6 9 30.13 1020 10 16.0934 0 0.0254
11:56 am 11:56 Cloudy 47 8.3 38 3.3 71 71 S 8 13 30.12 1020 10 16.0934 0 0.0254
12:56 pm 12:56 Mostly Cloudy 52 11.1 42 5.6 69 69 SSE 8 13 30.1 1019 10 16.0934 0 0
1:56 pm 13:56 Mostly Sunny 59 15 40 4.4 49 49 S 7 11 30.08 1019 10 16.0934 0 0
2:56 pm 14:56 Mostly Cloudy 64 17.8 44 6.7 48 48 SSW 10 17 30.03 1017 10 16.0934 0 0
3:56 pm 15:56 Cloudy 65 18.3 45 7.2 49 49 SSW 12 19 30.01 1016 10 16.0934 0 0
4:56 pm 16:56 Sunny 66 18.9 44 6.7 45 45 SSW 7 11 30 1016 10 16.0934 0 0
5:56 pm 17:56 Sunny 65 18.3 43 6.1 45 45 SSE 8 13 29.99 1016 10 16.0934 0 0
6:56 pm 18:56 Sunny 62 16.7 46 7.8 56 56 SE 13 20 29.96 1015 10 16.0934 0 0
7:56 pm 19:56 Clear 60 15.6 44 6.7 56 56 SSE 9 15 29.98 1015 10 16.0934 0 0
8:56 pm 20:56 Mostly Clear 59 15 43 6.1 56 56 SE 12 19 29.97 1015 10 16.0934 0 0
9:56 pm 21:56 Clear 57 13.9 42 5.6 58 58 SE 13 20 29.95 1014 10 16.0934 0 0
10:56 pm 22:56 Clear 56 13.3 41 5 57 57 SSE 15 24 29.94 1014 10 16.0934 0 0
11:56 pm 23:56 Clear 54 12.2 40 4.4 59 59 SSE 10 17 29.95 1014 10 16.0934 0 0

Powered by AerisWeather